• In Hungary
  • List of Countries
  • For 7 days
  • Water Temperature
  • Satellite Maps
  • Weather Map
  • News
  • Weather Widgets
  • user-avatar
    Login

    Hourly Weather Dmitrievka

    Today, 26 September, Wednesday

    Time Temperature Precipitation Wind Pressure Humidity
    00:00 +7°C° 0 mm 3 mps 745 mmHg 87%
    01:00 +7°C° 0 mm 3 mps 745 mmHg 87%
    02:00 +5°C° 0 mm 3 mps 745 mmHg 88%
    03:00 +5°C° 0 mm 3 mps 746 mmHg 89%
    04:00 +4°C° 0 mm 3 mps 746 mmHg 90%
    05:00 +4°C° 0 mm 3 mps 747 mmHg 91%
    06:00 +4°C° 0 mm 3 mps 747 mmHg 91%
    07:00 +5°C° 0 mm 3 mps 748 mmHg 85%
    08:00 +7°C° 0 mm 3 mps 748 mmHg 79%
    09:00 +7°C° 0 mm 4 mps 749 mmHg 73%
    10:00 +8°C° 0 mm 4 mps 749 mmHg 68%
    11:00 +10°C° 0 mm 4 mps 749 mmHg 63%
    12:00 +11°C° 0 mm 4 mps 750 mmHg 58%
    13:00 +11°C° 0 mm 4 mps 750 mmHg 57%
    14:00 +11°C° 0 mm 4 mps 750 mmHg 55%
    15:00 +12°C° 0 mm 4 mps 750 mmHg 54%
    16:00 +11°C° 0 mm 3 mps 750 mmHg 58%
    17:00 +10°C° 0 mm 3 mps 751 mmHg 63%
    18:00 +9°C° 0 mm 2 mps 751 mmHg 67%
    19:00 +8°C° 0 mm 2 mps 751 mmHg 69%
    20:00 +7°C° 0 mm 2 mps 751 mmHg 72%
    21:00 +6°C° 0 mm 2 mps 751 mmHg 75%
    22:00 +6°C° 0 mm 2 mps 751 mmHg 76%
    23:00 +6°C° 0 mm 2 mps 751 mmHg 77%

    Tomorrow, 27 September, Thursday

    Time Temperature Precipitation Wind Pressure Humidity
    00:00 +4°C° 0 mm 3 mps 751 mmHg 78%
    01:00 +4°C° 0 mm 3 mps 751 mmHg 78%
    02:00 +4°C° 0 mm 3 mps 750 mmHg 79%
    03:00 +4°C° 0 mm 4 mps 750 mmHg 80%
    04:00 +4°C° 0 mm 4 mps 749 mmHg 78%
    05:00 +3°C° 0 mm 5 mps 749 mmHg 76%
    06:00 +3°C° 0 mm 5 mps 748 mmHg 74%
    07:00 +4°C° 0 mm 7 mps 748 mmHg 69%
    08:00 +5°C° 0 mm 8 mps 747 mmHg 63%
    09:00 +6°C° 0 mm 9 mps 747 mmHg 57%
    10:00 +6°C° 0.2 mm 9 mps 746 mmHg 57%
    11:00 +6°C° 0.2 mm 10 mps 745 mmHg 57%
    12:00 +6°C° 0.2 mm 10 mps 745 mmHg 56%
    13:00 +6°C° 0.4 mm 10 mps 744 mmHg 60%
    14:00 +6°C° 0.4 mm 10 mps 744 mmHg 63%
    15:00 +6°C° 0.4 mm 10 mps 743 mmHg 67%
    16:00 +6°C° 0.2 mm 9 mps 743 mmHg 70%
    17:00 +6°C° 0.2 mm 9 mps 743 mmHg 73%
    18:00 +6°C° 0.2 mm 8 mps 743 mmHg 77%
    19:00 +6°C° 0 mm 8 mps 743 mmHg 79%
    20:00 +6°C° 0 mm 7 mps 743 mmHg 81%
    21:00 +7°C° 0 mm 6 mps 744 mmHg 83%
    22:00 +7°C° 0 mm 6 mps 744 mmHg 85%
    23:00 +7°C° 0 mm 6 mps 744 mmHg 88%

    Day after tomorrow, 28 September, Friday

    Time Temperature Precipitation Wind Pressure Humidity
    00:00 +6°C° 0 mm 5 mps 744 mmHg 91%
    01:00 +6°C° 0 mm 5 mps 744 mmHg 92%
    02:00 +6°C° 0 mm 5 mps 744 mmHg 93%
    03:00 +6°C° 0 mm 5 mps 744 mmHg 94%
    04:00 +6°C° 0 mm 5 mps 744 mmHg 95%
    05:00 +6°C° 0 mm 5 mps 744 mmHg 95%
    06:00 +6°C° 0 mm 5 mps 744 mmHg 95%
    07:00 +7°C° 0 mm 5 mps 744 mmHg 90%
    08:00 +8°C° 0 mm 6 mps 744 mmHg 86%
    09:00 +10°C° 0 mm 7 mps 744 mmHg 81%
    10:00 +11°C° 0 mm 7 mps 744 mmHg 75%
    11:00 +12°C° 0 mm 8 mps 743 mmHg 68%
    12:00 +15°C° 0 mm 9 mps 743 mmHg 62%
    13:00 +15°C° 0 mm 9 mps 742 mmHg 60%
    14:00 +16°C° 0 mm 9 mps 742 mmHg 57%
    15:00 +17°C° 0 mm 9 mps 742 mmHg 55%
    16:00 +16°C° 0 mm 8 mps 742 mmHg 58%
    17:00 +15°C° 0 mm 7 mps 741 mmHg 62%
    18:00 +14°C° 0 mm 6 mps 741 mmHg 65%
    19:00 +14°C° 0 mm 6 mps 741 mmHg 67%
    20:00 +14°C° 0 mm 6 mps 741 mmHg 68%
    21:00 +14°C° 0 mm 7 mps 741 mmHg 69%
    22:00 +14°C° 0 mm 7 mps 741 mmHg 72%
    23:00 +14°C° 0 mm 6 mps 742 mmHg 76%

    29 September, Saturday

    Time Temperature Precipitation Wind Pressure Humidity
    00:00 +13°C° 0 mm 6 mps 742 mmHg 80%
    01:00 +13°C° 0 mm 5 mps 742 mmHg 80%
    02:00 +12°C° 0 mm 4 mps 743 mmHg 81%
    03:00 +12°C° 0 mm 3 mps 744 mmHg 81%
    04:00 +11°C° 0 mm 3 mps 744 mmHg 81%
    05:00 +9°C° 0 mm 3 mps 745 mmHg 80%
    06:00 +8°C° 0 mm 3 mps 745 mmHg 80%
    07:00 +9°C° 0 mm 3 mps 746 mmHg 73%
    08:00 +10°C° 0 mm 3 mps 746 mmHg 65%
    09:00 +10°C° 0 mm 3 mps 747 mmHg 58%
    10:00 +11°C° 0 mm 3 mps 747 mmHg 52%
    11:00 +13°C° 0 mm 2 mps 747 mmHg 45%
    12:00 +14°C° 0 mm 2 mps 747 mmHg 39%
    13:00 +14°C° 0 mm 2 mps 747 mmHg 38%
    14:00 +15°C° 0 mm 2 mps 747 mmHg 37%
    15:00 +15°C° 0 mm 1 mps 747 mmHg 35%
    16:00 +14°C° 0 mm 2 mps 747 mmHg 38%
    17:00 +13°C° 0 mm 2 mps 748 mmHg 41%
    18:00 +12°C° 0 mm 2 mps 748 mmHg 44%
    19:00 +11°C° 0 mm 3 mps 748 mmHg 47%
    20:00 +10°C° 0 mm 3 mps 748 mmHg 49%
    21:00 +9°C° 0 mm 3 mps 748 mmHg 51%
    22:00 +9°C° 0 mm 3 mps 749 mmHg 53%
    23:00 +9°C° 0 mm 3 mps 749 mmHg 55%

    30 September, Sunday

    Time Temperature Precipitation Wind Pressure Humidity
    00:00 +9°C° 0 mm 3 mps 749 mmHg 57%
    01:00 +9°C° 0 mm 3 mps 749 mmHg 58%
    02:00 +9°C° 0 mm 3 mps 749 mmHg 59%
    03:00 +9°C° 0 mm 3 mps 750 mmHg 60%
    04:00 +8°C° 0 mm 3 mps 750 mmHg 62%
    05:00 +8°C° 0 mm 3 mps 750 mmHg 65%
    06:00 +8°C° 0 mm 2 mps 750 mmHg 68%
    07:00 +8°C° 0 mm 3 mps 751 mmHg 65%
    08:00 +9°C° 0 mm 3 mps 751 mmHg 63%
    09:00 +10°C° 0 mm 3 mps 751 mmHg 60%
    10:00 +11°C° 0 mm 3 mps 751 mmHg 55%
    11:00 +12°C° 0 mm 3 mps 752 mmHg 50%
    12:00 +14°C° 0 mm 2 mps 752 mmHg 45%
    13:00 +14°C° 0 mm 2 mps 751 mmHg 44%
    14:00 +14°C° 0 mm 2 mps 751 mmHg 42%
    15:00 +14°C° 0 mm 2 mps 751 mmHg 41%
    16:00 +13°C° 0 mm 2 mps 751 mmHg 44%
    17:00 +12°C° 0 mm 2 mps 751 mmHg 48%
    18:00 +10°C° 0 mm 2 mps 752 mmHg 52%
    19:00 +9°C° 0 mm 2 mps 752 mmHg 53%
    20:00 +8°C° 0 mm 2 mps 752 mmHg 55%
    21:00 +8°C° 0 mm 2 mps 752 mmHg 56%
    22:00 +8°C° 0 mm 1 mps 752 mmHg 57%
    23:00 +8°C° 0 mm 1 mps 752 mmHg 58%

    1 October, Monday

    Time Temperature Precipitation Wind Pressure Humidity
    00:00 +7°C° 0 mm 1 mps 752 mmHg 59%
    01:00 +7°C° 0 mm 1 mps 752 mmHg 61%
    02:00 +7°C° 0 mm 1 mps 752 mmHg 62%
    03:00 +7°C° 0 mm 1 mps 752 mmHg 64%
    04:00 +6°C° 0 mm 1 mps 752 mmHg 66%
    05:00 +6°C° 0 mm 1 mps 752 mmHg 68%
    06:00 +6°C° 0 mm 1 mps 752 mmHg 70%
    07:00 +7°C° 0 mm 2 mps 752 mmHg 66%
    08:00 +8°C° 0 mm 2 mps 752 mmHg 63%
    09:00 +10°C° 0 mm 2 mps 752 mmHg 59%
    10:00 +12°C° 0 mm 2 mps 752 mmHg 54%
    11:00 +12°C° 0 mm 3 mps 752 mmHg 50%
    12:00 +13°C° 0 mm 3 mps 752 mmHg 46%
    13:00 +14°C° 0 mm 3 mps 752 mmHg 45%
    14:00 +14°C° 0 mm 3 mps 751 mmHg 44%
    15:00 +15°C° 0 mm 2 mps 751 mmHg 43%
    16:00 +14°C° 0 mm 2 mps 751 mmHg 47%
    17:00 +12°C° 0 mm 2 mps 751 mmHg 51%
    18:00 +11°C° 0 mm 1 mps 751 mmHg 55%
    19:00 +10°C° 0 mm 2 mps 751 mmHg 56%
    20:00 +9°C° 0 mm 2 mps 751 mmHg 57%
    21:00 +8°C° 0 mm 2 mps 751 mmHg 58%
    22:00 +8°C° 0 mm 2 mps 751 mmHg 59%
    23:00 +8°C° 0 mm 2 mps 751 mmHg 60%
    Show more